Theta_e
315 315 316 315 314 314 315 316 315 314 314 313 313 313 313 312 310 308 308 308 308 308 308 308 308 308 308 308 308 309 310 309 308 309 309 308 307 307 308 308 308 308 309 309 310 309 309 308 308 308 307 307 307 306 307 307 307 307 307 307 306 305 305 304 304 304 303 303 303 304 305 305 306 307
313 312 312 312 312 313 315 315 315 314 313 313 314 315 313 311 310 310 310 309 309 308 308 308 309 309 308 308 307 308 310 310 309 308 308 307 307 307 309 310 310 309 309 309 310 310 309 308 307 307 306 305 304 303 303 303 304 304 305 306 306 307 307 306 306 305 305 305 304 304 303 303 303 304
310 309 309 310 312 313 315 315 314 314 314 314 316 316 314 313 312 312 311 310 309 308 309 309 309 309 308 307 307 309 310 310 309 308 308 307 307 308 309 310 310 310 310 310 310 310 308 307 306 305 304 303 302 301 301 301 301 301 302 302 304 305 306 307 307 306 306 306 306 305 305 304 304 303
311 311 309 309 311 312 314 314 314 315 315 315 315 316 316 315 314 314 313 312 311 311 311 310 309 308 308 307 307 308 310 310 309 309 308 308 309 309 309 309 310 310 310 310 310 309 308 307 306 305 303 302 301 301 301 301 301 302 302 302 302 303 304 305 305 306 306 306 306 306 306 305 305 305
313 314 313 311 311 312 313 313 314 314 314 314 315 315 316 315 315 315 315 315 314 313 312 309 308 308 308 308 309 309 309 310 309 309 309 309 309 308 308 309 310 310 310 310 310 309 308 307 306 305 304 302 301 301 300 300 301 301 302 302 302 303 303 303 303 304 304 304 305 305 305 305 305 305
314 314 314 314 313 313 313 313 314 314 314 315 315 315 316 315 315 315 316 315 314 313 312 309 309 309 310 310 310 310 310 310 310 310 310 309 309 308 309 309 310 310 310 310 309 308 307 307 307 305 304 302 301 301 300 300 301 301 301 301 301 302 301 302 302 302 302 303 303 304 304 304 304 304
312 313 312 312 313 313 314 314 314 315 315 315 315 316 315 315 315 315 315 315 315 314 313 311 310 310 311 311 311 310 310 310 310 310 310 309 309 308 309 310 310 310 310 309 307 306 306 307 306 305 304 303 302 301 300 300 301 301 301 301 301 301 301 300 300 300 300 301 301 302 302 303 304 304
311 311 310 310 312 313 314 314 314 314 315 315 315 316 315 315 315 315 315 314 314 314 313 312 311 311 312 311 311 311 311 310 310 310 310 309 309 309 309 310 310 310 310 308 306 305 306 306 306 305 304 303 302 301 300 301 301 302 302 301 301 301 300 300 299 299 299 299 299 300 300 301 302 302
310 310 310 310 310 311 313 314 314 314 315 315 315 315 315 315 314 314 314 314 314 314 313 313 312 312 312 312 312 312 311 311 311 310 311 310 309 310 310 310 311 310 310 308 306 306 306 306 306 305 304 303 301 300 300 301 301 302 302 302 301 301 300 299 299 299 299 298 298 298 298 299 299 300
311 311 310 310 309 310 311 312 313 313 314 315 315 315 315 314 314 314 314 315 315 315 315 314 313 314 314 314 313 312 312 312 311 311 311 311 310 310 311 311 311 310 309 307 306 307 307 307 306 305 303 302 301 300 300 301 301 302 302 302 302 301 300 300 299 299 298 298 298 298 298 298 298 298
312 312 311 311 312 312 312 312 313 314 314 314 315 315 316 315 314 314 315 315 315 315 315 315 315 314 314 314 313 313 312 312 312 311 311 311 311 311 311 311 311 309 307 307 307 307 308 307 306 304 302 300 300 300 300 300 301 302 302 302 302 301 300 300 300 299 299 298 298 298 298 298 298 298
313 313 314 314 315 315 315 315 315 316 315 315 315 315 316 315 315 315 314 314 315 315 315 315 315 315 314 314 313 313 312 312 312 312 311 312 312 311 312 311 310 308 308 308 308 307 307 306 304 302 300 300 300 300 300 300 301 302 302 302 301 300 300 300 300 300 299 299 298 298 298 298 298 298
313 313 315 316 316 316 316 316 316 316 317 316 316 315 315 315 315 315 315 314 315 315 315 315 315 314 314 314 314 314 313 312 313 313 312 312 312 312 312 311 309 308 309 309 308 307 306 304 302 300 300 300 300 300 301 301 302 302 301 301 300 300 301 301 300 300 299 299 299 299 299 299 298 298
313 313 315 316 316 316 316 316 316 317 317 317 317 316 316 316 316 316 315 315 315 315 315 315 315 314 314 314 314 313 313 313 312 312 312 312 312 311 311 310 309 309 308 308 307 306 305 303 301 300 300 300 300 301 302 302 302 301 301 301 301 301 301 301 300 300 300 299 299 299 299 299 299 299
314 315 316 316 316 317 316 316 317 317 316 316 316 316 316 316 316 316 315 315 315 315 315 315 314 315 315 314 314 313 313 312 312 312 312 311 311 311 310 310 309 309 307 306 306 305 303 301 300 300 300 300 301 301 302 302 302 302 301 301 301 301 301 301 300 300 300 300 300 300 300 299 299 298
316 316 316 316 317 317 316 316 316 316 316 316 316 315 315 315 315 315 314 315 315 315 315 315 315 315 315 314 314 313 313 312 312 311 311 311 311 310 309 309 308 307 306 305 304 303 302 301 300 300 300 300 301 301 301 301 301 301 301 301 301 301 301 300 300 300 300 300 300 300 300 299 299 298
316 317 317 317 317 317 316 316 316 315 315 315 315 315 314 314 315 315 314 314 315 315 315 315 315 315 315 314 313 313 313 312 312 312 311 311 310 309 308 307 307 306 305 304 303 301 301 300 300 300 300 300 300 300 300 300 301 301 301 301 301 300 300 300 300 300 300 300 300 300 299 299 299 298
317 317 318 318 317 316 316 315 315 315 314 315 314 314 314 313 312 312 313 314 315 315 315 315 315 315 315 314 314 313 313 312 312 311 311 309 308 307 306 306 305 304 303 301 300 300 300 300 300 300 300 300 300 300 300 300 301 301 301 301 300 299 299 299 300 300 300 299 300 299 299 299 299 298
318 318 319 318 317 316 315 315 315 314 314 313 313 312 311 309 308 307 308 309 311 312 313 315 315 315 315 315 314 314 313 311 310 310 309 307 306 306 305 304 303 301 300 300 299 299 299 299 300 300 300 299 299 299 300 300 300 300 300 299 299 299 299 299 299 299 299 299 299 299 299 299 299 298
317 318 318 318 316 316 315 315 314 314 313 311 311 310 309 307 305 304 304 304 305 307 309 311 312 314 314 314 314 313 311 309 308 307 306 305 305 304 303 301 300 300 299 298 298 298 298 298 299 298 298 297 297 297 298 298 298 298 298 298 298 298 298 298 298 298 298 298 298 299 299 299 299 298
317 318 318 317 316 315 315 314 313 312 312 311 311 309 307 305 304 303 303 303 303 304 306 307 309 310 311 312 311 309 308 306 306 305 304 303 302 301 300 300 299 298 298 298 298 297 298 298 297 297 297 296 296 296 296 297 297 296 297 298 298 298 298 298 297 297 297 297 297 298 298 298 298 298
317 317 318 317 317 316 315 314 313 313 313 313 311 308 305 303 303 303 303 303 303 303 304 305 306 307 308 308 307 306 305 304 304 303 302 301 300 300 299 299 299 298 298 298 298 298 298 298 297 297 297 296 296 296 296 296 296 296 296 297 297 297 297 297 297 297 297 297 297 297 297 298 298 297
317 317 317 317 317 316 315 314 312 312 313 313 309 304 303 303 303 303 303 303 302 302 303 303 304 304 304 304 304 303 302 302 301 300 300 300 300 299 299 299 299 299 299 298 298 298 298 298 297 297 297 296 296 296 296 296 296 296 296 295 295 296 296 296 296 296 296 296 296 296 296 297 297 297
316 315 315 315 315 315 315 314 313 313 315 314 308 302 302 303 303 303 303 302 303 303 303 303 303 303 302 302 301 301 301 300 300 300 300 300 300 300 299 299 299 298 298 298 297 297 297 297 297 297 296 296 296 296 296 296 296 295 295 294 294 295 295 295 295 296 296 295 295 295 295 296 296 296
317 315 315 315 315 315 315 314 313 314 314 311 305 302 303 303 303 303 303 303 303 304 304 304 304 303 302 300 300 300 300 300 300 300 300 300 300 299 298 298 297 297 297 296 296 296 296 296 296 296 296 296 295 295 295 295 295 294 294 294 294 294 294 295 295 295 295 295 295 294 295 295 295 295
316 316 316 315 315 315 314 313 313 312 309 307 306 305 304 302 302 302 303 304 305 306 307 306 305 303 301 300 301 301 301 300 300 300 300 300 299 298 297 297 297 296 296 296 296 296 296 296 296 295 295 295 295 295 294 294 294 294 293 293 294 294 294 295 295 295 294 294 294 294 294 294 294 294
315 315 315 314 313 313 312 310 307 307 307 309 310 307 304 302 302 302 304 306 307 308 307 305 302 301 301 301 301 300 300 300 300 300 299 299 298 297 296 296 296 296 296 296 296 296 295 295 295 294 294 294 294 294 293 293 293 294 293 293 294 294 294 294 294 294 294 294 294 294 294 294 294 294
314 314 314 313 312 311 309 305 304 306 309 311 310 307 306 306 304 303 305 306 306 305 303 302 300 300 300 300 300 300 300 300 300 299 299 298 297 296 296 296 296 296 296 296 295 295 294 294 294 294 294 294 293 293 293 293 293 293 293 294 294 294 294 294 294 294 294 294 294 294 294 294 294 294
313 313 312 312 311 309 305 304 304 306 307 308 309 309 309 307 304 302 303 303 303 302 301 300 300 300 300 300 300 300 300 299 299 298 297 296 295 296 296 296 296 296 296 295 295 294 293 293 293 293 293 293 293 293 294 293 293 293 294 294 294 294 294 294 294 294 294 294 294 294 294 294 294 294
313 312 311 311 310 307 304 303 303 302 302 303 305 306 305 303 301 300 301 301 300 300 300 300 300 300 300 300 300 299 298 297 296 296 295 295 295 296 296 296 296 295 295 294 294 293 293 293 293 293 293 293 293 293 293 293 293 294 294 294 294 294 294 294 294 294 294 294 294 294 294 294 293 293
312 311 310 309 306 304 303 301 301 301 301 301 301 301 300 300 299 299 300 300 300 300 300 300 299 299 299 299 298 296 295 295 295 295 295 295 295 295 295 295 295 295 294 293 293 292 292 292 292 292 293 293 293 293 293 293 293 294 294 294 294 294 294 294 293 294 294 294 294 293 293 293 293 292
311 310 308 305 303 302 302 301 301 301 301 300 299 299 299 299 299 299 299 299 299 299 299 299 298 298 297 296 295 294 294 294 294 294 295 295 295 295 295 294 294 293 293 293 292 291 291 291 292 292 292 293 293 293 293 293 293 293 294 294 294 294 294 294 293 294 294 293 293 293 292 292 293 292
311 308 305 303 302 302 302 302 301 300 299 299 300 301 301 301 301 299 299 299 299 298 298 297 297 296 294 294 294 294 294 294 294 294 294 294 294 293 293 293 292 292 291 291 290 290 290 290 291 292 292 292 293 293 293 293 293 293 293 294 293 293 293 293 293 293 293 293 292 292 292 292 292 292
310 308 304 302 302 302 302 301 300 300 300 301 302 303 302 301 300 299 299 299 298 297 297 296 295 294 293 293 293 293 293 293 293 293 293 293 293 293 293 292 291 290 290 290 290 290 290 290 291 291 292 292 292 292 293 293 293 293 293 293 293 293 293 293 293 293 293 292 292 291 291 292 292 292
309 307 304 302 303 302 302 301 300 301 303 303 303 302 300 299 299 299 298 298 297 297 296 295 294 293 293 293 293 293 293 292 293 293 293 293 293 292 292 291 290 290 290 289 289 289 290 291 291 291 292 293 293 293 293 293 293 293 293 293 293 293 293 293 293 292 292 292 292 292 291 291 291 292
309 307 304 303 303 302 302 302 302 302 302 301 300 300 299 299 299 299 298 297 296 296 295 293 293 293 293 293 292 292 292 292 292 292 293 292 292 291 291 290 290 290 289 289 289 290 290 291 291 291 292 292 292 293 293 293 292 292 293 293 293 293 293 293 293 292 292 292 292 292 292 291 291 291
308 307 304 303 302 302 302 302 301 301 300 299 299 299 299 299 298 298 297 297 296 295 293 292 292 293 293 292 292 292 292 292 292 292 292 292 292 291 291 290 289 289 289 289 289 290 290 291 291 291 291 291 291 292 293 293 293 293 293 293 293 293 293 293 292 293 293 293 293 292 292 292 292 292
304 304 303 302 302 302 302 301 300 299 299 299 298 298 298 298 297 297 297 296 295 294 293 292 292 293 292 292 291 291 291 292 292 292 292 292 292 291 290 289 288 289 289 289 289 290 290 291 291 291 291 291 291 291 292 293 294 294 293 292 293 293 293 292 293 293 293 293 293 292 292 292 292 292
302 303 303 302 302 302 301 300 299 300 300 299 298 297 297 297 296 296 296 296 295 293 292 292 292 292 292 291 291 291 291 291 292 292 292 292 292 291 290 289 289 289 289 289 290 290 291 291 291 291 291 291 291 291 292 293 294 294 293 293 293 293 293 292 293 293 293 293 293 292 292 292 292 293
302 302 302 302 302 301 300 299 300 300 299 298 298 297 296 296 296 296 296 295 294 292 292 292 293 293 292 291 291 290 290 291 291 292 292 291 291 290 289 289 289 289 290 290 290 291 291 291 291 291 291 292 292 292 292 293 293 294 294 293 293 293 293 292 292 293 293 293 292 292 293 293 293 293
302 301 301 300 300 299 299 299 299 299 298 298 298 297 297 296 296 295 295 294 293 292 292 292 293 293 292 291 290 290 290 290 291 291 291 291 290 290 289 289 290 290 290 290 290 291 291 292 292 292 292 292 292 293 293 293 293 294 294 293 293 292 292 293 293 293 293 293 292 293 293 293 293 293
302 301 300 299 299 299 299 299 299 299 299 298 298 297 296 296 295 295 294 293 292 292 292 292 292 291 291 290 290 290 290 291 291 290 290 289 289 290 289 289 289 290 290 290 291 291 292 292 292 292 292 292 292 292 293 293 293 294 293 292 292 292 293 293 293 293 293 292 293 293 293 293 293 293
301 300 299 299 299 299 299 299 299 299 299 298 297 296 296 296 295 294 293 293 293 293 292 291 291 290 290 289 289 290 290 291 290 290 289 289 289 289 289 289 289 289 290 291 291 292 292 292 292 292 292 293 293 292 293 293 293 293 293 293 293 293 293 293 293 293 292 292 292 292 293 293 292 292
299 299 299 299 299 299 299 299 299 299 298 297 296 296 296 295 294 293 293 293 293 293 293 292 290 290 290 289 289 290 291 291 290 290 289 289 289 290 290 289 289 289 290 291 291 292 292 292 292 292 293 293 292 293 293 293 293 293 293 293 294 294 294 294 293 293 292 292 292 292 292 292 292 292
298 299 299 299 299 299 299 298 298 297 297 296 296 296 295 293 293 292 293 293 293 293 293 292 290 289 289 289 289 290 290 290 290 290 289 289 290 290 290 289 289 289 290 290 291 291 292 291 291 292 292 293 292 293 293 293 294 294 294 294 294 294 294 293 293 292 292 292 292 292 292 292 292 292
Wind_Speed
16 17 16 16 15 14 15 17 20 21 20 17 14 11 15 22 23 20 17 13 10 6 1 3 5 7 9 10 11 11 12 11 9 9 11 11 10 11 12 12 12 12 12 14 17 19 19 17 15 15 14 14 14 14 14 14 14 14 14 14 14 13 13 13 13 13 12 12 12 12 12 12 13 13
15 15 16 17 16 15 17 20 19 19 18 15 10 9 15 21 19 17 17 15 11 8 5 2 3 4 6 9 11 13 13 12 10 10 12 13 10 11 13 13 14 14 12 12 16 21 22 20 17 17 16 16 16 16 15 15 14 14 14 14 14 14 14 14 14 14 14 14 14 13 13 14 14 14
13 13 16 18 18 16 16 17 16 15 16 13 8 8 14 17 14 12 14 15 13 9 5 2 1 3 4 6 9 11 14 14 12 11 13 14 12 12 15 15 16 17 16 15 18 22 25 23 21 20 18 17 17 17 17 16 15 14 14 13 13 14 14 15 15 16 16 16 16 15 15 15 15 15
14 16 16 17 18 16 15 16 15 14 12 9 6 7 11 12 11 10 9 11 13 9 4 3 2 1 1 2 5 7 11 14 12 11 12 14 13 13 14 15 16 18 18 18 19 23 25 25 23 21 19 17 18 19 19 18 16 15 13 13 13 13 14 14 15 16 16 17 17 17 17 17 17 17
18 18 18 17 17 17 16 16 14 12 9 6 5 6 9 11 11 8 6 7 10 9 3 2 4 4 1 1 4 4 7 10 11 10 11 12 13 11 10 11 13 15 17 19 21 23 24 24 24 23 22 22 23 24 24 22 19 16 14 14 14 13 13 14 14 15 16 17 18 18 18 18 18 18
18 17 16 17 18 18 16 15 13 10 8 7 6 7 8 9 8 6 6 6 7 7 3 3 6 5 2 2 5 6 5 6 8 9 9 10 10 8 7 9 11 13 17 20 23 23 22 22 23 24 26 26 26 27 27 25 22 19 17 16 16 15 14 14 15 15 16 17 17 18 18 19 19 19
16 14 13 14 16 16 15 14 12 8 7 7 7 7 6 6 6 4 4 5 4 4 3 4 7 5 3 1 3 6 3 3 6 6 6 5 5 5 6 8 11 13 17 20 23 23 20 19 22 25 27 29 29 29 28 25 23 21 20 20 19 17 16 16 16 16 16 17 17 18 18 18 19 19
14 12 11 10 12 13 12 13 13 9 9 10 9 8 6 4 4 4 5 5 4 4 4 4 4 4 2 1 2 3 1 2 4 2 2 4 5 6 7 9 11 14 17 21 24 22 19 19 23 26 28 30 30 30 29 25 21 21 22 23 22 20 19 19 19 18 18 18 18 18 18 18 18 18
10 11 10 10 10 12 12 13 14 11 10 10 8 8 8 6 6 6 6 6 4 4 5 5 4 4 2 2 1 1 2 2 1 3 6 7 8 8 9 11 14 17 20 23 24 21 19 21 25 27 29 30 31 31 28 23 20 20 21 23 23 22 22 23 22 22 22 22 22 20 19 18 18 18
9 8 9 9 9 11 11 12 13 12 12 12 8 8 9 7 7 7 7 7 5 3 4 6 6 5 3 4 4 4 4 5 5 5 6 7 9 11 12 15 17 19 22 24 24 21 20 23 27 28 30 31 31 29 25 21 19 20 21 21 22 24 25 25 25 26 27 27 27 25 23 21 19 19
8 7 8 8 9 10 11 12 13 13 12 13 11 8 8 8 8 8 9 10 8 5 5 5 6 5 6 6 6 6 8 9 9 10 11 11 12 15 17 18 19 21 23 24 23 23 23 25 27 29 30 30 29 26 22 20 19 18 19 20 22 24 25 26 27 28 29 30 30 29 27 25 22 20
10 9 9 9 9 9 11 12 12 12 11 13 14 12 9 8 9 10 11 11 10 9 7 6 6 7 9 10 9 9 12 13 13 14 15 16 18 19 21 21 22 23 25 25 24 25 26 27 29 31 30 28 25 23 20 18 16 16 18 20 22 24 24 25 27 28 30 31 30 28 28 27 25 22
13 13 12 11 11 10 11 11 11 12 12 13 15 15 13 11 11 12 12 11 11 11 9 9 9 8 9 11 12 13 14 15 15 16 17 18 20 21 22 22 23 24 25 26 27 28 29 31 32 31 29 25 22 21 18 15 15 17 20 21 21 22 23 24 26 28 30 30 27 25 27 27 26 24
17 16 15 14 13 13 13 13 12 12 13 13 15 16 16 15 14 13 12 12 12 12 11 12 11 11 11 11 11 12 13 14 16 17 17 18 19 20 21 21 22 24 25 27 30 31 31 31 31 30 27 24 21 20 18 18 19 20 21 21 21 21 22 24 26 28 28 26 24 24 27 28 27 26
19 19 18 17 16 16 15 15 14 14 13 14 15 15 16 16 16 16 14 13 13 13 13 13 14 14 14 13 12 11 12 14 15 16 17 17 18 19 20 21 23 24 25 27 30 31 30 29 28 27 25 22 19 17 16 17 17 18 19 20 21 22 23 25 26 26 24 23 24 25 26 28 28 27
22 21 20 20 20 19 18 17 16 16 16 16 17 17 17 18 18 18 18 17 17 16 15 15 15 15 15 16 15 14 14 14 15 16 16 17 18 20 21 23 25 26 28 29 31 31 30 29 26 23 21 19 17 16 15 16 17 18 19 20 21 23 24 25 24 21 20 21 23 23 23 26 27 27
24 24 23 23 23 21 20 19 18 18 19 20 20 19 18 18 19 20 19 19 18 18 18 17 17 17 17 17 17 17 17 17 17 17 18 19 20 22 23 25 27 28 29 31 32 32 31 29 25 21 20 19 20 20 21 22 21 20 20 21 23 24 24 23 21 18 17 19 21 20 19 21 24 25
26 27 26 26 24 22 21 21 21 21 21 22 22 21 20 20 20 20 19 19 18 18 19 19 19 19 19 19 19 20 20 21 21 21 22 23 24 25 25 26 27 28 29 30 30 29 27 25 23 21 21 23 23 24 24 23 22 22 23 25 25 23 21 20 19 17 17 19 20 20 18 17 19 22
28 29 28 26 25 24 23 23 23 23 23 22 23 23 22 20 19 18 17 17 17 17 18 19 20 20 21 21 21 22 23 23 24 24 24 25 25 25 25 26 26 26 26 26 25 24 23 23 23 23 23 24 25 25 24 24 25 26 26 24 22 19 18 18 18 19 20 21 21 21 20 18 16 17
30 30 28 28 28 26 25 24 24 24 23 22 24 24 22 19 17 16 15 15 15 16 17 17 18 18 19 19 20 21 22 22 23 23 23 23 23 23 24 25 25 24 23 23 23 22 21 22 23 24 25 26 27 27 27 27 27 25 22 20 18 18 19 20 20 21 22 23 23 22 22 20 17 15
33 31 30 30 30 26 24 23 23 24 25 25 25 26 23 19 16 14 14 13 13 13 14 14 14 14 15 16 17 18 19 19 20 20 20 21 22 22 24 24 24 22 21 21 22 21 20 22 25 27 29 30 31 30 28 27 26 23 20 19 19 20 20 21 22 23 23 24 24 22 20 19 17 15
34 33 32 33 32 28 26 26 24 26 28 28 26 25 23 19 16 14 13 14 13 13 12 12 11 11 12 13 14 15 16 17 18 18 18 19 20 21 22 22 23 22 20 18 20 21 22 25 27 30 33 34 31 28 27 26 25 24 24 25 24 23 23 23 23 24 24 24 24 21 19 17 15 15
35 34 33 33 33 32 33 33 30 29 30 27 24 23 21 18 15 15 15 14 13 13 12 10 9 9 10 12 13 14 14 14 15 16 17 18 19 20 20 20 21 22 19 20 23 25 26 29 31 32 33 32 30 29 28 28 29 31 31 29 25 24 24 25 25 24 24 24 23 20 18 17 17 17
36 36 37 37 36 35 37 35 30 28 29 26 23 22 19 17 16 16 15 14 12 11 10 9 10 11 12 14 13 13 13 13 14 16 17 17 17 18 17 18 19 20 20 23 27 28 28 30 31 31 29 28 29 31 31 32 34 33 30 25 20 18 18 19 20 20 20 19 17 16 16 17 18 20
36 37 39 40 38 36 36 32 27 26 27 26 24 21 18 16 16 15 14 12 11 11 11 11 13 14 15 15 14 13 14 14 14 14 14 14 15 15 15 16 18 19 21 23 26 26 28 29 30 30 29 27 28 30 32 33 32 28 25 22 19 17 15 14 14 13 13 13 13 13 15 16 18 20
34 36 36 35 32 31 30 26 24 25 25 25 24 20 17 16 15 14 13 13 12 13 13 14 14 13 13 14 14 13 13 12 12 12 12 14 15 15 16 18 21 22 23 24 26 26 28 29 29 29 28 27 27 28 29 29 26 23 22 22 20 17 13 11 11 11 11 13 14 15 17 18 19 19
31 32 30 26 24 24 23 20 20 22 24 25 23 20 17 15 14 13 14 14 14 14 14 14 12 11 11 12 13 12 11 10 12 12 14 16 18 18 19 21 23 24 24 25 26 27 28 28 25 24 23 24 25 25 25 25 24 23 23 22 19 14 11 9 10 11 12 14 15 17 18 19 21 21
28 27 25 23 24 23 21 19 20 23 24 23 21 19 17 15 14 14 14 15 15 15 14 13 12 11 12 13 13 13 13 13 15 16 18 20 22 21 21 22 23 25 26 26 27 27 25 22 19 18 18 19 20 22 23 24 24 23 23 21 18 13 10 10 12 13 14 16 18 19 21 22 23 24
26 24 23 24 25 24 22 22 23 23 23 21 20 19 17 15 14 15 15 14 14 14 13 12 12 12 13 13 14 15 16 17 19 20 21 21 21 21 21 22 23 24 26 27 26 24 20 16 15 15 15 16 18 20 23 25 24 22 22 22 20 15 12 13 15 16 17 19 20 22 23 24 24 24
25 24 24 24 25 27 26 24 22 21 20 20 20 19 17 16 16 15 15 14 14 14 13 12 13 14 14 14 15 16 17 19 20 20 20 19 19 20 21 22 23 24 25 24 21 18 14 12 12 15 16 17 18 20 21 24 24 22 21 23 23 19 16 16 17 18 20 22 23 23 24 24 24 23
26 25 24 25 26 27 25 23 22 22 21 20 20 19 18 16 15 13 13 13 13 13 14 14 15 15 15 14 14 15 16 17 18 18 18 18 19 21 23 24 25 25 23 18 15 13 12 11 12 14 15 16 17 18 19 21 23 23 23 21 21 20 19 19 19 20 22 24 24 25 25 25 23 22
28 26 26 28 29 27 26 26 25 24 23 22 20 18 16 13 11 11 12 13 14 14 15 15 14 14 13 12 11 12 13 14 15 15 16 18 19 21 23 23 23 21 18 15 14 14 13 11 10 11 13 15 16 17 18 19 21 22 21 19 17 17 18 19 21 22 23 25 26 27 27 26 24 21
31 31 32 33 32 31 30 29 27 26 24 22 19 15 12 9 10 12 14 15 15 14 13 12 11 11 9 9 9 9 9 11 12 14 15 16 17 18 18 18 17 17 17 17 17 17 14 10 9 11 12 14 16 17 18 19 18 17 17 16 16 17 18 20 22 23 24 25 26 27 27 25 21 17
34 35 37 36 34 33 31 30 30 28 22 17 14 12 12 12 14 15 16 15 13 11 10 10 10 9 7 6 6 6 8 10 13 15 15 15 15 16 17 17 16 15 16 17 17 16 14 11 10 11 12 13 14 13 12 14 16 15 15 15 17 19 21 21 22 22 21 21 21 23 24 22 15 9
39 41 41 39 36 35 35 33 30 24 17 14 14 15 15 17 18 17 15 13 10 10 10 10 8 6 5 4 4 7 9 10 12 14 14 15 16 17 17 15 14 15 17 17 15 13 12 12 13 14 14 14 13 10 7 10 15 17 17 18 19 20 20 20 19 18 17 17 18 20 22 20 13 6
42 43 43 40 36 34 33 30 25 20 17 17 18 18 19 20 18 16 13 11 9 10 9 7 5 4 3 3 5 7 8 10 11 12 13 15 17 17 15 14 15 17 17 15 12 10 10 11 13 15 16 16 18 17 14 13 16 18 18 18 17 16 16 15 15 15 16 17 18 18 19 20 17 12
45 47 44 39 33 29 26 23 21 21 21 20 19 20 20 20 18 16 13 11 10 8 6 4 3 3 2 3 5 6 8 9 10 12 14 16 17 17 17 16 16 14 13 11 9 8 10 11 12 14 16 18 20 23 21 18 15 15 14 14 13 11 12 14 15 16 17 18 18 18 18 19 19 16
37 41 38 33 29 26 23 21 22 23 21 19 18 18 18 18 18 16 14 11 8 5 3 3 3 3 3 3 5 6 8 9 10 12 14 15 16 18 18 15 11 10 11 11 9 8 9 11 12 14 16 18 20 23 24 22 18 14 10 9 10 10 11 14 16 18 19 18 19 19 19 19 19 16
25 28 29 28 26 24 23 23 23 22 20 17 17 17 16 16 17 15 13 10 6 3 3 4 4 4 3 3 5 6 9 10 11 12 14 15 17 19 15 11 10 11 12 12 10 9 10 12 13 13 14 15 17 19 20 22 22 15 7 4 8 10 12 14 17 18 19 19 20 20 19 17 14 11
25 27 28 28 26 25 24 23 21 21 20 18 17 16 16 16 16 14 11 8 5 4 5 6 5 5 4 4 5 8 11 12 12 13 16 17 17 14 11 10 11 12 13 13 11 10 12 13 13 13 14 14 15 16 17 19 19 13 6 4 7 10 11 12 15 17 19 21 21 20 18 14 10 7
26 25 25 24 23 23 23 21 21 23 22 19 17 16 15 15 15 13 10 8 6 5 6 7 6 5 4 4 6 9 11 12 13 15 16 15 11 8 10 11 11 12 13 13 11 12 13 13 13 12 13 13 14 14 15 16 15 10 6 4 6 8 9 11 14 17 20 21 20 17 14 11 8 7
26 24 22 21 21 22 20 19 21 23 20 17 16 17 17 16 14 12 10 8 7 6 7 7 5 4 3 4 7 9 10 9 11 12 10 7 7 8 9 11 11 12 12 12 12 13 13 13 12 12 12 11 11 12 12 13 12 9 6 4 5 8 11 13 15 17 19 18 16 15 14 12 10 9
26 25 23 21 21 21 20 19 19 20 18 16 17 19 18 17 14 11 10 9 8 7 6 4 2 2 3 4 7 9 8 8 10 10 7 6 7 9 10 11 12 11 11 11 12 12 12 12 11 11 11 10 9 10 11 10 7 5 6 6 7 10 12 13 14 17 17 15 14 14 13 12 11 11
26 29 27 24 21 19 19 18 18 17 16 16 17 17 16 15 13 11 11 10 9 7 5 3 2 3 3 5 7 8 7 8 10 11 8 7 8 10 12 13 12 10 10 10 12 12 12 12 11 11 12 11 9 9 9 6 3 5 6 6 8 10 11 12 14 15 14 13 12 12 10 10 10 10
29 29 26 22 20 18 18 18 18 18 18 18 17 15 14 14 13 12 12 11 9 8 6 5 4 3 4 5 7 7 6 7 9 9 7 8 10 11 13 12 11 10 10 11 12 13 14 13 12 12 13 12 9 7 6 3 2 5 6 7 9 10 10 11 13 13 11 10 10 9 9 9 9 10
Wind_Direction
160 165 169 168 155 137 133 134 131 135 144 151 158 166 167 165 160 151 143 144 153 166 182 43 48 27 25 42 48 46 50 57 61 58 55 56 57 54 48 45 44 43 44 41 33 26 21 17 13 10 8 7 4 2 359 356 353 350 347 346 344 343 341 338 335 331 326 321 315 309 302 296 291 287
167 168 168 164 150 138 136 138 139 141 145 151 151 152 166 170 167 158 148 143 150 161 156 82 44 22 12 34 44 35 33 46 54 50 48 50 50 41 33 32 33 33 32 27 19 15 13 13 11 7 5 5 3 360 357 355 351 346 342 337 333 331 330 329 328 327 325 322 320 317 312 307 301 294
155 151 159 162 154 146 144 146 151 154 155 155 142 140 165 177 188 190 172 156 152 159 169 183 348 360 12 34 41 33 29 34 43 47 43 36 30 24 21 22 24 22 19 14 9 6 5 5 7 9 8 6 4 1 358 357 354 350 345 338 331 326 322 320 319 318 317 316 316 315 314 312 308 304
134 127 136 152 158 156 154 156 159 160 160 158 143 139 148 156 170 182 177 164 161 165 186 190 159 120 99 48 38 35 30 28 34 47 43 31 23 16 14 16 17 15 11 7 3 1 359 358 359 5 7 4 3 1 360 359 358 356 351 345 338 331 324 319 315 313 312 311 310 309 309 308 306 304
135 127 125 134 147 155 158 158 157 153 144 129 127 143 139 138 148 151 137 145 157 160 165 159 137 131 149 41 23 22 27 25 26 36 39 31 21 11 5 7 10 8 4 359 355 353 354 352 351 354 358 359 359 358 355 355 357 360 358 352 347 340 332 325 320 317 313 310 308 306 305 304 303 302
140 136 132 132 139 146 149 147 147 149 141 129 130 143 146 147 152 147 129 125 140 146 140 157 150 122 64 358 5 4 12 26 24 23 27 25 14 3 350 348 351 353 353 352 349 347 350 349 345 346 349 351 352 353 351 349 349 351 353 353 351 345 338 331 326 323 319 315 311 307 305 302 300 299
149 146 141 139 143 147 144 142 146 145 135 138 148 156 156 145 143 163 163 137 125 132 136 164 165 130 70 33 23 23 25 27 22 18 14 6 345 317 307 318 328 336 343 343 342 342 346 345 341 341 341 341 342 345 346 344 342 342 344 346 348 345 339 334 330 326 322 319 315 311 308 304 301 299
157 156 151 147 153 160 158 156 162 160 145 148 155 167 177 157 150 180 180 154 134 136 148 157 153 130 119 177 354 1 347 14 36 79 248 274 266 266 285 306 319 326 331 331 332 337 341 338 335 334 333 333 335 337 339 338 335 336 337 339 341 340 337 335 332 330 327 324 321 316 312 308 304 301
169 170 169 166 168 175 176 173 177 179 172 168 164 168 179 174 169 179 171 156 146 144 169 180 155 146 182 242 283 257 227 286 298 209 227 241 239 252 281 301 310 315 317 319 326 333 334 329 327 327 327 327 328 330 331 330 328 330 331 332 334 335 335 335 333 332 331 330 328 324 318 314 309 305
192 192 190 187 185 189 191 191 196 199 189 184 183 181 181 174 172 182 179 170 165 149 174 188 174 173 225 250 233 229 242 259 261 248 243 243 244 258 276 288 299 309 312 316 324 328 324 321 321 322 321 322 323 324 324 322 322 324 325 327 331 333 333 332 332 332 332 332 331 329 324 318 311 306
212 213 213 209 203 201 202 203 209 214 202 192 192 191 185 181 182 189 190 191 198 200 187 193 200 214 249 261 248 247 259 266 267 262 258 258 264 270 277 285 296 305 309 313 320 320 316 316 316 316 317 318 320 321 319 317 317 319 322 327 329 328 328 329 329 330 331 331 333 332 328 323 317 310
223 221 225 230 228 218 211 210 213 214 207 200 201 202 198 197 200 202 201 202 207 206 200 207 227 247 261 263 253 248 254 261 264 263 261 263 269 274 279 287 295 301 305 310 314 314 313 314 315 317 320 322 323 323 321 318 315 316 319 322 323 323 324 325 326 327 329 330 334 336 333 330 326 322
231 234 236 239 242 235 226 224 221 215 212 208 208 213 217 220 222 220 219 217 213 214 223 227 233 250 260 259 257 256 256 253 249 253 258 264 271 276 282 289 293 298 302 305 307 310 314 317 318 320 323 327 332 334 332 324 317 316 317 319 320 321 321 321 322 324 325 329 337 341 338 335 333 331
236 242 244 242 241 239 234 232 230 226 224 221 217 220 225 228 231 232 234 236 234 237 241 237 238 249 257 258 257 252 247 243 242 251 261 268 275 280 284 287 289 293 299 302 305 309 314 317 318 318 321 328 337 342 341 334 327 324 323 320 319 318 317 318 318 320 323 329 337 339 336 335 334 334
241 241 243 242 238 237 236 236 237 239 240 238 234 232 233 233 233 237 243 248 251 252 247 243 249 258 263 267 267 258 250 247 250 259 267 274 279 283 287 290 292 296 302 307 309 311 314 316 318 319 321 328 334 338 339 333 326 321 317 314 312 312 312 313 315 318 323 328 329 330 331 330 330 332
242 241 242 242 241 240 238 236 240 244 246 245 242 240 242 242 240 243 247 251 254 256 254 252 258 263 265 266 269 268 265 262 262 266 271 276 281 285 291 295 297 301 306 310 312 314 316 317 318 320 321 321 318 317 316 311 307 307 307 306 307 308 310 312 314 319 325 323 317 319 325 325 324 327
244 244 244 243 242 242 240 238 241 247 248 245 242 242 244 245 245 245 246 247 249 251 252 252 256 261 264 266 268 269 269 269 269 271 274 279 283 287 292 296 300 305 308 311 312 313 314 314 313 313 310 305 301 300 300 299 299 300 300 302 305 308 309 310 308 311 316 314 308 307 314 319 318 320
250 248 247 247 242 240 243 245 246 250 249 244 240 241 243 244 245 247 246 246 246 247 250 252 256 260 263 266 269 270 270 271 272 275 280 284 287 292 297 301 306 309 311 312 312 311 311 308 304 301 298 295 296 296 296 294 292 292 294 297 301 304 306 306 302 300 301 302 302 302 303 307 311 314
246 244 244 242 238 242 251 254 253 252 249 241 237 238 241 244 246 248 249 247 247 249 251 253 255 258 262 265 268 270 271 272 275 279 284 287 291 296 301 304 307 310 312 313 312 309 306 301 297 295 295 295 295 294 292 291 292 294 295 295 294 295 299 301 301 300 298 298 299 301 302 301 299 305
251 248 243 237 239 248 255 255 252 249 243 238 238 238 240 244 245 243 243 243 244 245 247 249 251 255 259 262 265 267 270 273 276 281 285 290 295 300 303 305 307 309 313 313 312 310 307 302 299 298 299 299 299 298 295 294 295 296 293 289 288 292 297 299 300 301 301 301 300 300 301 298 290 292
256 251 244 240 243 248 250 248 247 247 246 246 245 242 241 241 237 232 235 239 241 243 245 249 252 255 258 261 263 265 269 274 280 286 290 294 299 303 305 306 307 310 315 314 311 310 308 304 303 302 302 304 305 304 302 300 301 300 293 285 284 289 295 297 298 299 300 301 301 299 297 292 284 282
253 248 244 243 244 246 247 249 252 256 255 251 244 238 235 234 232 232 236 240 242 245 249 253 256 260 265 267 268 272 278 284 289 294 295 298 302 305 308 310 311 313 317 314 308 307 305 304 304 304 306 308 309 308 307 306 307 307 303 297 289 286 289 292 293 295 297 298 300 299 295 289 282 279
249 247 244 243 244 247 253 259 261 256 249 242 235 230 226 225 228 233 236 239 243 247 248 251 258 267 272 275 279 283 287 292 295 296 298 301 305 308 310 311 310 311 312 308 306 305 303 303 304 306 309 311 310 308 309 309 308 307 307 306 298 288 284 285 288 291 294 297 301 302 297 291 288 287
247 246 245 245 248 253 258 262 258 244 235 233 231 223 218 219 225 231 233 235 238 241 242 249 259 268 275 279 283 285 286 289 292 293 297 301 303 304 305 302 300 302 303 303 303 302 300 301 303 304 306 308 307 306 306 307 308 309 312 316 314 304 295 291 291 294 300 307 312 312 305 299 297 297
251 250 249 250 254 256 254 249 242 233 229 230 226 219 217 221 224 227 230 229 230 235 242 251 260 270 278 280 279 277 277 280 284 287 290 292 294 297 298 295 296 300 301 301 301 300 300 303 304 304 303 303 304 305 307 308 310 315 322 326 327 324 320 315 313 316 320 325 328 325 319 314 310 308
255 254 254 255 256 253 242 230 226 228 224 218 216 216 218 220 219 222 228 231 233 236 241 251 263 274 278 275 270 268 270 272 276 280 283 287 293 298 298 297 299 301 301 300 300 301 302 302 302 302 303 304 305 308 311 313 316 324 330 331 332 336 339 338 339 343 341 338 335 331 325 320 316 314
256 254 253 248 237 226 216 207 210 216 210 206 210 216 218 219 220 224 231 236 238 240 246 256 267 268 261 258 261 265 268 272 276 282 287 292 295 295 292 291 292 293 294 295 296 298 299 300 299 300 302 305 307 311 315 318 323 328 331 333 338 346 352 349 345 346 344 338 332 327 323 319 317 316
256 250 242 226 209 200 197 196 200 203 200 200 207 213 216 219 224 229 234 239 242 246 252 255 254 246 240 241 246 252 258 265 272 277 281 284 286 286 286 286 286 288 290 292 294 297 298 299 301 302 302 305 309 313 315 317 321 325 329 334 341 348 351 343 337 337 335 330 326 324 324 323 321 320
250 240 228 215 203 197 196 196 197 199 199 200 204 208 213 219 227 233 237 239 242 245 246 242 237 235 235 235 240 249 257 265 271 275 278 281 283 284 286 286 286 288 290 291 292 294 294 296 301 304 304 306 308 311 312 312 315 320 325 329 332 337 340 336 332 332 330 326 323 323 323 324 323 322
239 229 222 215 204 197 196 196 197 200 203 205 208 211 215 221 228 234 237 239 242 243 241 238 234 231 234 242 250 259 267 272 276 279 282 284 286 287 288 289 290 291 291 290 290 290 289 292 299 302 303 304 304 305 307 308 310 315 320 322 322 323 327 330 329 329 327 324 321 321 321 321 321 321
230 224 217 208 199 195 195 195 197 200 202 205 209 212 212 215 220 227 234 237 237 238 240 241 238 237 243 251 259 267 273 277 279 281 284 286 287 289 291 292 293 292 289 287 292 296 296 296 296 298 300 303 302 302 304 306 308 312 316 319 318 317 320 325 326 326 325 323 321 320 318 316 315 317
220 215 205 196 191 191 193 194 195 198 199 198 199 200 201 205 212 221 227 228 228 234 240 241 241 245 250 256 263 271 276 280 283 287 291 290 289 289 290 293 295 295 295 299 306 310 308 300 290 288 293 298 301 303 305 305 307 312 317 320 319 316 320 324 324 324 324 322 320 317 314 312 313 316
212 205 196 190 189 191 192 192 194 195 192 189 192 198 210 224 229 226 224 225 227 231 233 234 239 248 255 261 269 278 286 294 300 305 305 301 297 297 298 300 304 308 309 309 311 314 314 307 290 284 288 292 296 302 305 306 309 316 319 320 320 319 321 322 321 321 322 321 319 317 315 315 316 316
212 206 197 189 187 190 191 191 191 190 190 195 208 222 230 226 219 216 217 220 222 222 225 233 243 252 262 271 285 303 313 315 315 314 313 311 311 311 309 308 310 312 309 306 309 316 321 319 311 303 297 294 291 292 298 307 314 319 322 321 318 316 316 318 319 320 321 322 323 322 322 323 321 311
212 206 197 188 187 191 193 192 191 194 202 214 221 220 212 205 207 211 214 215 217 220 229 238 244 251 263 284 316 326 323 319 317 317 317 318 317 317 317 318 318 313 308 309 317 325 327 328 329 324 315 308 303 298 307 323 325 324 323 320 316 313 313 317 321 325 327 330 330 330 330 333 333 313
214 205 194 189 190 194 195 196 198 204 207 204 203 203 200 199 205 211 212 215 222 227 230 231 234 246 267 308 323 320 319 320 321 322 322 321 320 321 321 317 309 306 308 317 331 335 329 331 338 337 334 331 326 323 327 333 330 326 322 318 315 315 317 322 327 331 332 332 332 330 329 333 336 332
207 201 195 194 196 198 198 197 197 199 197 191 191 197 202 203 205 207 211 220 227 226 220 216 226 241 267 306 311 315 323 326 327 325 321 319 320 317 311 306 305 310 320 331 338 336 331 337 347 348 345 342 335 327 324 326 331 335 334 325 318 317 322 327 331 334 333 331 330 328 325 325 329 332
197 195 194 195 196 197 197 195 195 195 193 186 185 193 201 204 203 204 210 219 223 216 209 222 237 245 263 294 309 322 331 328 322 318 314 313 312 306 304 309 322 333 337 339 342 345 345 348 353 352 346 342 335 326 321 322 332 348 353 329 315 318 327 330 330 332 333 332 330 329 326 324 326 329
201 199 197 194 195 199 198 197 197 194 188 183 185 191 194 193 195 200 209 217 220 219 225 229 230 235 256 290 312 325 328 321 313 308 305 303 301 301 307 331 354 353 349 350 352 357 354 351 351 349 344 336 328 321 315 314 322 335 345 320 315 325 330 329 329 332 337 338 333 332 331 330 332 333
208 208 202 197 196 194 189 187 188 185 181 182 188 191 188 188 194 203 210 215 220 220 213 208 210 226 261 297 318 326 325 318 310 304 297 295 297 307 333 360 2 356 356 358 357 354 351 349 347 342 336 327 318 313 308 307 313 324 336 324 320 323 324 327 332 338 341 340 337 336 337 341 351 357
210 205 196 189 184 177 172 176 179 180 183 189 195 196 194 193 197 204 209 216 221 209 199 201 213 239 275 309 326 328 322 312 303 296 291 294 310 341 359 359 357 357 356 354 352 348 346 345 343 336 330 324 316 311 310 309 314 326 344 334 323 328 335 339 339 339 339 339 339 341 344 352 10 19
203 190 180 180 179 173 172 177 181 185 194 202 201 199 199 199 202 208 214 219 216 201 200 214 231 257 294 321 327 323 316 309 305 304 305 324 357 4 357 353 354 355 351 348 346 344 343 343 340 332 329 327 321 318 319 319 321 335 0 7 352 350 350 347 342 339 338 339 344 351 356 1 12 17
193 178 171 174 175 171 174 182 190 200 209 205 195 195 200 205 209 211 209 210 208 202 205 223 250 277 302 320 321 315 314 322 329 333 346 11 11 0 357 355 350 347 349 349 346 346 347 346 341 338 338 337 329 324 325 324 331 0 24 24 5 350 344 344 343 342 342 346 354 2 5 7 13 16
174 169 169 170 171 174 180 187 193 200 198 190 189 195 202 205 207 201 196 200 206 208 217 242 260 266 294 313 312 310 317 329 330 332 348 13 14 3 357 351 348 353 360 355 351 354 356 351 351 354 354 348 338 328 324 326 5 27 15 359 348 340 337 342 345 346 350 358 4 8 12 17 21 19
172 174 174 174 177 179 178 176 178 181 181 183 192 198 196 194 196 194 192 199 213 228 242 250 250 261 292 304 305 310 315 314 316 330 1 20 10 356 353 355 1 9 7 359 358 2 359 355 1 7 2 354 345 333 321 319 351 359 355 349 342 336 337 345 352 357 4 10 11 13 19 24 26 24